This demonstration page uses our WeatherBlox Daily Observations layout. Learn more.

Left ArrowRight Arrow

39.12711, -84.51439

Hourly Observations for July 30, 2018

Temp ( °F °C ) Dew Point ( °F °C ) Humidity (%) Winds ( mph kmh ) Pressure ( in mb ) Visibility ( mi km ) Precip ( " mm )
12:53 am 00:53 Clear 70 21.1 66 18.9 87 87 NE 5 7 30.08 1019 10 16 0.00 0.00
1:53 am 01:53 Mostly Clear 70 21.1 66 18.9 87 87 NE 6 9 30.07 1018 10 16 0.00 0.00
2:53 am 02:53 Mostly Cloudy 70 21.1 65 18.3 84 84 NE 3 6 30.07 1018 10 16 0.00 0.00
3:53 am 03:53 Mostly Cloudy 69 20.6 65 18.3 87 87 NE 6 9 30.06 1018 10 16 0.00 0.00
4:53 am 04:53 Mostly Cloudy 69 20.6 65 18.3 87 87 Calm 30.06 1018 10 16 0.00 0.03
5:53 am 05:53 Mostly Cloudy with Light Rain 68 20 65 18.3 90 90 ENE 5 7 30.05 1018 10 16 0.00 0.03
6:53 am 06:53 Cloudy 67 19.4 65 18.3 93 93 NNE 6 9 30.04 1017 10 16 0.00 0.03
7:53 am 07:53 Cloudy 68 20 64 17.8 87 87 NNE 5 7 30.05 1018 10 16 0.00 0.00
8:53 am 08:53 Cloudy 69 20.6 65 18.3 87 87 NNE 5 7 30.04 1017 10 16 0.00 0.00
9:53 am 09:53 Partly Cloudy 72 22.2 66 18.9 82 82 VRB 6 9 30.04 1017 10 16 0.00 0.00
10:53 am 10:53 Cloudy 73 22.8 65 18.3 76 76 ENE 3 6 30.05 1018 10 16 0.00 0.00
11:53 am 11:53 Mostly Sunny 76 24.4 67 19.4 74 74 NE 7 11 30.05 1018 10 16 0.00 0.00
12:53 pm 12:53 Mostly Cloudy 78 25.6 68 20 71 71 VRB 6 9 30.04 1017 10 16 0.00 0.00
1:53 pm 13:53 Partly Cloudy 79 26.1 67 19.4 67 67 NNE 8 13 30.02 1017 10 16 0.00 0.00
2:53 pm 14:53 Partly Cloudy 79 26.1 66 18.9 65 65 ENE 7 11 30.01 1016 10 16 0.00 0.00
3:53 pm 15:53 Mostly Sunny 81 27.2 66 18.9 61 61 NNE 3 6 30.01 1016 10 16 0.00 0.00
4:53 pm 16:53 Mostly Cloudy 78 25.6 66 18.9 67 67 NE 6 9 30.01 1016 10 16 0.00 0.00
5:53 pm 17:53 Mostly Cloudy 77 25 69 20.6 77 77 ESE 3 6 30.00 1016 10 16 0.00 0.03
6:53 pm 18:53 Mostly Sunny 78 25.6 69 20.6 74 74 NE 5 7 29.98 1015 10 16 0.00 0.00
7:53 pm 19:53 Mostly Sunny 76 24.4 68 20 77 77 NE 3 6 29.98 1015 10 16 0.00 0.00
8:53 pm 20:53 Clear 73 22.8 69 20.6 87 87 ENE 3 6 29.98 1015 10 16 0.00 0.00
9:53 pm 21:53 Clear 72 22.2 69 20.6 91 91 Calm 29.99 1016 10 16 0.00 0.00
10:53 pm 22:53 Partly Cloudy 73 22.8 68 20 84 84 NE 6 9 30.01 1016 10 16 0.00 0.00
11:53 pm 23:53 Mostly Cloudy 73 22.8 67 19.4 81 81 NE 6 9 30.00 1016 10 16 0.00 0.00

Powered by AerisWeather